Regional Weather Roundup
Issued by NWS Charleston, SC

Current Version | Previous Version | Text Only | Print | Product List | Glossary Off
Versions: 1 2 3 4 5 6 7 8 9 10 11 12 13 14 15 16 17 18 19 20 21 22 23 24 25 26 27 28 29 30 31 32 33 34 35 36 37 38 39 40 41 42 43 44 45 46 47 48

000
ASUS42 KCHS 210812
RWRCHS

REGIONAL WEATHER ROUNDUP
NATIONAL WEATHER SERVICE CHARLESTON SC
300 AM EST TUE FEB 21 2017

NOTE: "FAIR" INDICATES FEW OR NO CLOUDS BELOW 12,000 FEET WITH NO
SIGNIFICANT WEATHER AND/OR OBSTRUCTIONS TO VISIBILITY.

NOT ALL STATIONS ARE QUALITY CONTROLLED. USE DATA WITH CAUTION...
ESPECIALLY DEWPOINT OBSERVATIONS.

SCZ027-030-031-034>040-042>050-210900-
...SOUTHEAST SOUTH CAROLINA...

CITY           SKY/WX    TMP DP  RH WIND       PRES   REMARKS
N CHARLESTON   FOG       54  53  97 NE6       30.17S VSB 1/4
WATERFRONT PRK   N/A     58  58 100 VRB3      30.16S
MOUNT PLEASANT LGT RAIN  52  52 100 CALM      30.17F
JOHNS ISLAND   FAIR      55  55 100 NE3       30.16F FOG
PINOPOLIS        N/A     55  55 100 VRB2      30.10S
MONCKS CORNER  FAIR      50  48  93 CALM      30.18S
SUMMERVILLE    FAIR      50  48  93 CALM      30.18F
BEAUFORT MCAS  CLOUDY    55  54  96 CALM      30.15F
BEAUFORT ARPT  FAIR      57  55  94 NE5       30.15S
HILTON HEAD IS PTCLDY    57  57 100 NE5       30.16S
WALTERBORO     CLOUDY    48  46  93 CALM      30.17S
ALLENDALE      FAIR      54  50  87 CALM      30.15F

...SOUTHERN MIDLANDS AND PEE DEE...

CITY           SKY/WX    TMP DP  RH WIND       PRES   REMARKS
GEORGETOWN     FAIR      52  52 100 CALM      30.20S
KINGSTREE      FAIR      46  45  93 CALM      30.20S
ORANGEBURG     MOCLDY    50  47  89 E3        30.18S
BARNWELL       FAIR      52  50  93 CALM      30.16F
AIKEN          FAIR      46  43  87 NE6       30.19F
MANNING        FAIR      48  39  71 MISG      30.19F
COLUMBIA       CLOUDY    50  45  83 CALM      30.17F
SUMTER         CLOUDY    49  46  88 NE6       30.18S
FLORENCE       PTCLDY    51  47  86 E3        30.21S
MYRTLE BEACH   NOT AVBL
N MYRTLE BEACH CLOUDY    54  49  83 NE8       30.20F

$$

GAZ063-065-086>088-099>101-113>116-118-119-134>141-150-210900-
...SOUTHEAST GEORGIA...

CITY           SKY/WX    TMP DP  RH WIND       PRES   REMARKS
SAVANNAH ARPT  CLOUDY    55  52  89 CALM      30.15F
HUNTER AAF     MOCLDY    58  58 100 CALM      30.12F
FORT STEWART   MOCLDY    53  51  94 CALM      30.12S
STATESBORO     CLOUDY    51  51 100 CALM      30.15S
SYLVANIA       CLOUDY   N/A N/A N/A CALM      30.16S
CLAXTON        FAIR     N/A N/A N/A CALM      30.15S

...CSRA...CENTRAL AND FAR SOUTHEAST GEORGIA...

CITY           SKY/WX    TMP DP  RH WIND       PRES   REMARKS
THOMSON        CLOUDY    49  49  98 CALM      30.20S
AUGUSTA-BUSH   MOCLDY    51  46  83 CALM      30.16F HAZE
AUGUSTA-DANIEL CLOUDY    58  45  62 SE5       30.16F
SWAINSBORO     FAIR      55  48  76 E7        30.14F
VIDALIA        MOCLDY    55  52  88 E3        30.13F
EASTMAN        FAIR      52  52  99 CALM      30.15F
HAZLEHURST     FAIR      56  51  83 CALM      30.12F
ALMA           PTCLDY    50  49  96 CALM      30.12F
WAYCROSS       PTCLDY    55  55  98 CALM      30.12F
JESUP          FAIR      54  50  87 CALM      30.13S
BAXLEY         FAIR      52  52 100 CALM      30.13F
BRUNSWICK      FOG       54  54 100 CALM      30.13S VSB 1
SAINT SIMONS   PTCLDY    63  61  93 NE5       30.12S

$$

SCZ027-028-034-036>038-045-046-048>050-GAZ119-141-210900-
...LAKE AND SUPPLEMENTAL COASTAL OBSERVATIONS...

STATION/POSITION TIME  TEMP    WIND        PRES    WAVE   SWELL
                       AIR SEA DIR/SP/G            HT/PER HT/PER/DIR
                 (UTC) (F)     (DEG/KT/KT) (MB)    (FT/S) (FT/S/D)
WINYAH BAY       NOT AVBL
LAKE MURRAY      0720   53        CALM     1021.7R
ACE BASIN NERRS  0645   54        CALM     1021.0
FORT PULASKI     0748   61 60   70/  6/  8 1020.9F
SAPELO ISLAND    0700   63      90/  5     1020.0

$$

ANZ835-935-AMZ111-154-330-350-352-354-370-450-454-472-210900-
...C-MAN AND BUOY OBSERVATIONS...

STATION/POSITION TIME  TEMP    WIND        PRES    WAVE   SWELL
                       AIR SEA DIR/SP/G            HT/PER HT/PER/DIR
                 (UTC) (F)     (DEG/KT/KT) (MB)    (FT/S) (FT/S/D)
BUOY 41004       0750   68 66   80/ 14/ 16 1020.4F   2/ 4
BUOY 41008       0750   63 62   70/  8/  8 1019.6F   1/ 5   2/100/ 5
FOLLY BEACH CMAN 0700   59      30/  6/  7 1022.0S
CAPERS NEARSHORE 0708   59 59   50/  8/ 10 1021.4F
FRIPP NEARSHORE  0708   61 60   40/  6/  8 1020.7R


STATION/POSITION TIME  TEMP    WIND        PRES    WAVE   SWELL
                       AIR SEA DIR/SP/G            HT/PER HT/PER/DIR
                 (UTC) (F)     (DEG/KT/KT) (MB)    (FT/S) (FT/S/D)
5E ST. MARYS GA  0730      64                N/A     1/ 3
FRYING PAN BUOY  0750   67 66   60/ 16/ 17 1022.0F   4/ 5   2/ 70/ 8
BUOY 41025       0750   61 76   40/ 16/ 21 1022.8F   7/ 9   5/ 70/ 9
CAPE LOOKOUT NC  0700   53      10/ 10/ 12 1023.5R
BUOY 41002       0750   67 71   40/ 17/ 21 1019.9F   5/ 6
BUOY 41010       NOT AVBL
ST AUGUSTINE FL  0800   67 67   80/  7/  7 1020.0F


$$




USA.gov is the U.S. government's official web portal to all federal, state and local government web resources and services.